Regional Weather Roundup
Issued by NWS

Home | Current Version | Previous Version | Graphics & Text | Print | Product List | Glossary On
Versions: 1 2 3 4 5 6 7 8 9 10 11 12 13 14 15 16 17 18 19 20 21 22 23 24 25 26 27 28 29 30 31 32 33 34 35 36 37 38 39 40 41 42 43 44 45 46 47 48 49 50
000
ASUS45 KABQ 191101
RWRNM
NEW MEXICO REGIONAL WEATHER ROUNDUP
NATIONAL WEATHER SERVICE ALBUQUERQUE NM
500 AM MDT TUE SEP 19 2017

NOTE: "FAIR" MEANS FEW OR NO CLOUDS BELOW 12,000 FEET AGL WITH NO
       SIGNIFICANT WEATHER OR OBSTRUCTIONS TO VISION.

      THIS PRODUCT IS RELEASED AS TWO VERSIONS.  ONE VERSION NEAR
      THE TOP OF THE HOUR CONTAINING PRELIMINARY DATA FROM ALBUQUERQUE
      AND OTHER STATIONS.  A FINAL VERSION WITH ADDITIONAL DATA IS
      ISSUED ABOUT 10 MINUTES AFTER THE HOUR.

NMZ501-503-504-510>518-191200-
NORTHWEST PLATEAU/NORTHCENTRAL MOUNTAINS

CITY           SKY/WX    TMP DP  RH WIND       PRES   REMARKS
FARMINGTON     FAIR      43  29  57 CALM      30.02S
LOS ALAMOS     FAIR      60  15  17 S7        30.14S
SANTA FE       FAIR      54  23  30 CALM      30.10F
TAOS           FAIR      42  23  46 SE7       30.15F
ANGEL FIRE     FAIR      49  18  29 SW5       30.17F

$$
NMZ402-403-502-505>509-191200-
WESTCENTRAL MOUNTAINS/SOUTHWEST MOUNTAINS

CITY           SKY/WX    TMP DP  RH WIND       PRES   REMARKS
GALLUP         FAIR      48  21  34 CALM      30.10F
GRANTS         FAIR      49  23  36 SE8G16    30.12F
SILVER CITY    FAIR      54  33  45 NW8       30.12R

$$
NMZ407-409-411-412-191200-
SOUTHERN DESERTS

CITY           SKY/WX    TMP DP  RH WIND       PRES   REMARKS
DEMING         FAIR      59  41  51 SW5       30.06S
LAS CRUCES     MOCLDY    63  52  66 CALM      30.07R
HOLLOMAN AFB   MOCLDY    72  52  48 SE10      30.03S
ALAMOGORDO     FAIR      73  50  43 S13G18    30.04R
T OR C         FAIR      65  33  30 NW6       30.06R

$$
NMZ519>523-191200-
CENTRAL VALLEYS/CENTRAL HIGHLANDS

CITY           SKY/WX    TMP DP  RH WIND       PRES   REMARKS
ALBUQUERQUE    FAIR      66  24  20 SW8       30.07F
CLINES CORNERS FAIR      51  23  33 W16       30.15S
BELEN          FAIR      55  26  33 W6        30.07F
SOCORRO        FAIR      54  27  35 SW3       30.06R

$$
NMZ524>526-539-540-191200-
SOUTHCENTRAL MOUNTAINS

CITY           SKY/WX    TMP DP  RH WIND       PRES   REMARKS
RUIDOSO        FAIR      59  43  55 MISG      30.18S

$$
NMZ527>531-191200-
NORTHEAST HIGHLANDS/NORTHEAST PLAINS

CITY           SKY/WX    TMP DP  RH WIND       PRES   REMARKS
LAS VEGAS      FAIR      48  28  46 S9        30.08S
RATON          FAIR      43  35  73 N6        29.99F
CLAYTON        FAIR      57  38  48 W13       29.90F

$$
NMZ532>537-191200-
EASTCENTRAL PLAINS

CITY           SKY/WX    TMP DP  RH WIND       PRES   REMARKS
SANTA ROSA     FAIR      62  30  29 SW9       29.98R
TUCUMCARI      FAIR      61  44  53 W7        29.89R
CANNON AFB     CLEAR     59  59 100 SW8       29.98S
CLOVIS AIRPORT FAIR      58  55  90 SW8       29.97S

$$
NMZ028-029-538-191200-
SOUTHEAST PLAINS

CITY           SKY/WX    TMP DP  RH WIND       PRES   REMARKS
ROSWELL        FAIR      66  45  46 VRB6      29.94S
ARTESIA        FAIR      70  46  43 SE6       29.96S
CARLSBAD       FAIR      66  53  63 NE6       29.93R
HOBBS          FAIR      64  61  88 SW6       29.97S


$$




USA.gov is the U.S. government's official web portal to all federal, state and local government web resources and services.